Volver al catálogo

DELTA 1 DEB

ActivoLEO
NORAD 10198·DEBRIS·🇺🇸 United States

Lanzado Jul 14, 1977 desde Cape Canaveral Space Force Station

Loading…

Próximos Pases (próximas 24 horas)

TLE

ActualizadoSource: Space-Track

Época: Sep 14, 2026, 13:08 UTC

1 10198U 77065AB  26257.54764715  .00001521  00000-0  11092-2 0  9999
2 10198  29.5651  89.8373 0599625 197.3033 160.6239 13.30664739341545

Sigue DELTA 1 DEB en tiempo real con AllMySat

Download on the App Store